Regional Weather Roundup
Issued by NWS

Home | Current Version | Previous Version | Graphics & Text | Print | Product List | Glossary On
Versions: 1 2 3 4 5 6 7 8 9 10 11 12 13 14 15 16 17 18 19 20 21 22 23 24 25 26 27
000
ASUS45 KCYS 190810
RWRWY

WYOMING REGIONAL WEATHER ROUNDUP
NATIONAL WEATHER SERVICE CHEYENNE WY
200 AM MDT THU OCT 19 2017

NOTE:  "FAIR" INDICATES FEW OR NO CLOUDS BELOW 12,000 FEET
WITH NO SIGNIFICANT WEATHER AND/OR OBSTRUCTIONS TO VISIBILITY.

WYZ001-190900-
YELLOWSTONE NATIONAL PARK

CITY           SKY/WX    TMP DP  RH WIND       PRES   REMARKS
LK YELLOWSTONE   N/A     27  23  85 NW3       30.18S
W YELLOWSTONE  NOT AVBL

$$
WYZ002>013-054>058-071-098>099-190900-
NORTHERN WYOMING

CITY           SKY/WX    TMP DP  RH WIND       PRES   REMARKS
JACKSON        FAIR      31  24  75 N7        30.14S WCI  24
CODY           FAIR      59  20  22 SW14      29.98S
GREYBULL       FAIR      42  25  50 VRB6      29.94F
WORLAND        FAIR      38  28  67 NW5       29.94F WCI  34
SHERIDAN       FAIR      44  28  53 SW5       29.88F
BUFFALO        FAIR      55  12  18 W5        29.94F
GILLETTE       FAIR      57  18  21 SW14      29.90F
HULETT         FAIR      55  23  28 SW9       29.94R
NEWCASTLE      FAIR      52  21  30 E9        29.98S

$$
WYZ014>020-022>026-101>103-190900-
CENTRAL WYOMING

CITY           SKY/WX    TMP DP  RH WIND       PRES   REMARKS
BIG PINEY      FAIR      23  15  71 CALM      30.19F
PINEDALE       FAIR      25  19  80 NW5       30.19S WCI  19
DUBOIS         FAIR      41  19  42 NW13      30.12S
LANDER         FAIR      45  21  38 SW5       30.04R
RIVERTON       FAIR      44  21  40 W7        30.04S
CASPER         FAIR      51  15  23 W10       30.04S
DOUGLAS        FAIR      41  21  44 SE7       30.02F

$$
WYZ021-027>030-104>119-190900-
SOUTHERN WYOMING

CITY           SKY/WX    TMP DP  RH WIND       PRES   REMARKS
EVANSTON       FAIR      42  13  30 S7        30.18F
KEMMERER       FAIR      32  19  59 N9        30.19F WCI  24
FORT BRIDGER   FAIR      50   8  18 S5        30.20S
ROCK SPRINGS   FAIR      40   9  28 CALM      30.17S
DIXON          FAIR      32  14  48 E3        30.21S
RAWLINS        FAIR      37  12  35 E3        30.17S
SARATOGA       FAIR      34  14  44 S13       30.19S WCI  25
LARAMIE        FAIR      30  17  58 S7        30.18F WCI  23
CHEYENNE       FAIR      38  23  55 W9        30.13F WCI  31
TORRINGTON     FAIR      47  27  45 SE12      30.04F
PINE BLUFFS    FAIR      34  27  75 MISG      30.12S

$$




USA.gov is the U.S. government's official web portal to all federal, state and local government web resources and services.